CAPE
13 97 78 28 17 25 15 5 1 0 0 0 0 0 0 0 0 0 0 0 0 0
0 0 0 0 0 0 0 0 1 1 0 0 0 0 0 0 0 0 0 0 0 0
0 0 0 0 0 0 0 0 0 0 0 0 0 0 0 0 0 0 0 0 0 0
0 0 0 0 0 0 0 0 0 0 0 0 0 0 0 0 0 0 0 0 0 0
0 0 0 0 0 0 0 0 0 0 0 0 0 0 0 0 0 0 0 0 0 0
0 0 0 0 0 0 0 0 0 0 0 0 0 0 0 0 0 0 0 0 0 0
0 0 0 0 0 0 0 0 0 0 0 0 0 0 0 0 0 0 0 0 0 0
0 0 0 0 0 0 0 0 0 0 0 0 0 0 0 0 0 0 0 0 0 0
0 0 0 0 0 0 0 0 0 0 0 0 0 0 0 0 0 0 0 0 0 0
0 0 0 0 0 0 0 0 0 0 0 0 0 0 0 0 0 0 0 0 0 0
0 0 0 0 0 0 0 0 0 0 0 0 0 0 0 0 0 0 0 0 0 0
0 0 0 0 0 0 0 0 0 0 0 0 0 0 0 0 0 2 1 0 0 0
0 0 0 0 0 0 0 0 0 1 0 0 0 0 0 0 0 1 2 0 0 0
0 0 0 0 0 0 0 0 0 0 1 1 0 0 1 3 0 0 0 2 0 0
CIN
-378 -197 -190 -200 -195 -174 -194 -233 -1 0 0 0 0 0 0 0 0 0 0 0 0 0
0 0 0 0 0 0 0 0 0 0 0 0 0 0 0 0 0 0 0 0 0 0
0 0 0 0 0 0 0 0 0 0 0 0 0 0 0 0 0 0 0 0 0 0
0 0 0 0 0 0 0 0 0 0 0 0 0 0 0 0 0 0 0 0 0 0
0 0 0 0 0 0 0 0 0 0 0 0 0 0 0 0 0 0 0 0 0 0
0 0 0 0 0 0 0 0 0 0 0 0 0 0 0 0 0 0 0 0 0 0
0 0 0 0 0 0 0 0 0 0 0 0 0 0 0 0 0 0 0 0 0 0
0 0 0 0 0 0 0 0 0 0 0 0 0 0 0 0 0 0 0 0 0 0
0 0 0 0 0 0 0 0 0 0 0 0 0 0 0 0 0 0 0 0 0 0
0 0 0 0 0 0 0 0 0 0 0 0 0 0 0 0 0 0 0 0 0 0
0 0 0 0 0 0 0 0 0 0 0 0 0 0 0 0 0 0 0 0 0 0
0 0 0 0 0 0 0 0 0 0 0 0 0 0 0 -1 0 0 0 0 0 0
0 0 0 0 0 0 0 0 0 0 0 0 0 0 0 0 0 0 0 0 0 0
0 0 0 0 0 0 0 0 0 0 0 0 0 0 0 -1 0 0 0 0 0 0
Wind_Speed
2 3 3 5 5 5 7 7 11 10 6 9 6 7 6 5 4 5 4 5 4 3
1 1 1 3 4 4 4 3 6 6 6 6 7 7 6 4 5 4 4 3 4 3
3 2 0 1 2 3 3 5 7 8 8 8 7 7 5 5 4 4 2 2 4 3
3 2 1 2 2 3 4 6 7 7 8 9 9 7 6 5 5 5 4 3 3 4
5 2 1 2 3 4 5 5 7 9 8 8 8 8 7 6 4 5 5 4 3 3
3 3 2 1 3 4 6 7 7 8 9 8 8 8 6 6 5 4 4 3 3 3
3 3 2 3 4 4 5 6 7 7 8 8 8 7 7 7 6 5 4 4 3 2
5 2 2 2 2 3 5 6 7 8 7 8 8 6 7 6 6 5 4 3 3 2
7 5 4 4 5 5 5 6 6 7 7 7 5 10 10 8 5 5 4 5 5 3
7 6 5 4 4 6 7 5 6 6 6 7 7 12 12 11 5 5 4 4 4 3
7 7 5 7 8 7 6 7 6 7 7 6 5 10 10 10 4 3 3 4 5 6
8 7 6 8 7 6 6 6 5 4 7 6 5 11 11 7 4 3 4 4 5 6
9 7 7 8 7 4 4 4 4 4 4 7 5 10 12 10 5 5 4 4 5 10
8 7 6 5 5 6 6 5 6 6 5 6 7 7 13 16 6 5 6 6 6 5
Wind_Direction
145 190 178 201 208 205 196 198 178 178 181 137 153 166 180 169 153 163 171 158 146 156
358 96 183 211 203 191 174 153 166 181 162 137 152 139 135 143 146 162 151 156 168 174
17 345 297 196 217 200 163 151 148 136 125 120 119 120 125 135 148 156 126 140 166 172
357 20 113 169 174 176 164 152 144 141 143 140 140 143 143 145 146 146 154 161 181 194
347 358 161 184 180 165 161 156 154 144 138 136 143 143 146 148 148 161 165 162 190 204
342 322 318 79 147 137 134 136 130 134 139 140 141 130 131 140 140 138 130 147 173 193
307 270 216 155 153 136 130 130 134 138 139 143 139 138 146 148 147 137 143 140 132 148
307 268 193 185 151 141 141 145 140 138 140 142 145 152 151 145 148 143 141 162 155 162
304 284 243 188 177 165 156 150 153 151 155 149 143 156 155 154 154 162 185 189 172 168
306 270 244 227 198 183 178 157 172 165 164 164 169 173 176 163 166 174 192 194 162 153
308 270 224 202 205 190 174 184 180 181 178 177 184 182 176 174 160 141 194 194 179 168
305 278 227 216 201 188 181 187 178 182 181 186 195 191 183 159 137 164 199 189 188 177
298 280 246 231 193 173 183 179 164 182 188 203 197 204 198 168 162 169 187 197 201 193
303 291 256 216 183 183 181 167 173 179 181 201 201 210 211 184 171 186 193 196 195 208